Location: Logan
(41.7360°N, 111.8340°W)
Time: 00:50:34
(UTC-06:00)

Daily predictions for brighter satellites

Satellite Brightness Start Highest point End
(mag) Time Altitude Azimuth Time Altitude Azimuth Time Altitude Azimuth
CZ-4C R/B 3.5 00:11:58 32° NNE 00:11:58 32° NNE 00:15:13 10° NNE
ATLAS 5 CENTAUR R/B 3.2 00:07:56 10° NNW 00:12:44 44° NNE 00:12:44 44° NNE
BREEZE M DEB (TANK) 4.4 00:04:44 10° W 00:14:13 38° NNW 00:14:49 37° N
USA 267 4.3 00:20:17 10° NE 00:26:21 42° NNW 00:32:25 10° W
Mayak 1.7 00:50:42 10° NNE 00:51:15 14° NNE 00:51:15 14° NNE
Cosmos 1943 Rocket 3.7 00:52:19 10° NNW 00:55:09 31° NNW 00:55:09 31° NNW
USA 234 4.2 01:02:31 37° WNW 01:02:31 37° WNW 01:06:25 10° NW
ADEOS Rocket 4.1 00:56:16 10° NNE 01:01:06 42° NE 01:01:06 42° NE
SeaSat 1 4.5 01:15:09 24° NNW 01:15:09 24° NNW 01:17:05 10° NNW
Cosmos 2369 Rocket 4.2 01:16:44 10° NW 01:18:48 20° NW 01:18:48 20° NW
ATLAS 5 CENTAUR R/B 4.4 01:52:47 10° NW 01:54:16 17° WNW 01:54:16 17° WNW
CZ-4C R/B 4.4 01:57:05 17° NW 01:58:55 19° NNW 02:03:13 10° NNE
Resurs 1-4 Rocket 4.5 02:11:17 10° ENE 02:13:07 14° ENE 02:13:07 14° ENE
COSMOS 2406 4.2 02:55:31 40° NNW 02:55:31 40° NNW 02:59:43 10° NNE
Cosmos 2278 4.3 02:55:23 10° NNW 03:00:35 52° NE 03:00:35 52° NE
Cosmos 2034 Rocket 4.1 03:02:36 71° NNE 03:02:36 71° NNE 03:08:09 10° N
Cosmos 1980 Rocket 4.1 03:03:20 10° N 03:08:01 27° NE 03:12:42 10° ESE
Lacrosse 4 Rocket 3.3 03:06:26 10° N 03:09:50 31° NE 03:09:50 31° NE
Cosmos 1697 Rocket 3.5 03:06:11 10° NNW 03:11:39 46° ENE 03:12:51 40° E
CZ-2D R/B 2.9 03:06:41 10° NNE 03:11:21 46° E 03:11:21 46° E
Cosmos 1607 4.1 03:13:47 68° E 03:13:47 68° E 03:19:52 10° NE
Cosmos 2082 Rocket 2.7 03:16:53 52° E 03:16:53 52° E 03:21:45 10° NNE
Cosmos 1092 Rocket 4.3 03:10:28 10° N 03:16:39 61° E 03:17:20 57° ESE
Cosmos 1867 4.3 03:11:38 10° NNW 03:16:57 50° NE 03:18:06 43° E
SL-16 R/B 2.6 03:19:42 72° ESE 03:20:10 76° ENE 03:26:27 10° N
ARIANE 5 R/B 3.5 03:19:00 10° NNE 03:23:53 38° E 03:23:59 38° E
Meteor 1-15 Rocket 4.4 03:18:55 10° N 03:24:48 76° ENE 03:24:48 76° ENE
SL-08 R/B 4.2 03:26:34 46° N 03:26:34 46° N 03:30:00 10° N
Iridium 4 Rocket 4.4 03:26:50 38° NE 03:26:50 38° NE 03:29:55 10° NNE
IRS-1C 4.3 03:23:58 10° NNE 03:28:53 66° ENE 03:28:53 66° ENE
Cosmos 967 Rocket 4.4 03:24:42 10° NNW 03:31:13 88° ENE 03:31:38 79° SE
ADEOS II 4.2 03:38:56 10° NE 03:42:47 20° E 03:45:42 13° SE
Cosmos 1656 4.2 03:40:26 10° NNW 03:44:33 46° NW 03:44:33 46° NW
IRS-1D 3.5 03:41:12 10° NNE 03:46:17 81° ENE 03:46:17 81° ENE
AQUA 4.3 03:45:18 10° N 03:49:07 51° NNW 03:49:07 51° NNW
Okean 2 4.5 03:52:02 40° N 03:52:02 40° N 03:54:43 10° N
NPP 4.1 03:49:06 10° N 03:53:56 48° WNW 03:53:56 48° WNW
Resurs 1-4 Rocket 2.1 03:49:09 10° N 03:54:13 70° WNW 03:54:13 70° WNW
Helios 1A Rocket 3.7 03:51:24 10° NNE 03:55:10 48° E 03:55:10 48° E
Cosmos 1833 Rocket 2.7 03:55:59 64° WNW 03:56:06 64° WNW 04:01:43 10° NNE
Nadezhda 4 Rocket 4.4 03:50:26 10° NNW 03:55:34 43° WNW 03:55:34 43° WNW
Lacrosse 5 rocket 2.0 03:57:15 53° NNE 03:57:15 53° NNE 04:00:31 10° NE
Cosmos 1634 Rocket 3.9 04:03:12 62° SW 04:04:14 76° W 04:10:30 10° N
Cosmos 1606 Rocket 4.0 04:02:19 10° N 04:06:34 56° E 04:07:16 49° ESE
H-2A R/B 4.0 04:03:27 10° N 04:06:04 28° NW 04:06:04 28° NW
BREEZE-M R/B 4.2 04:09:00 29° ESE 04:09:00 29° ESE 04:12:27 10° ENE
Cosmos 2228 4.3 04:07:44 10° N 04:11:46 38° ENE 04:14:16 20° SE
Cosmos 2360 4.2 04:06:21 10° NNW 04:12:05 80° ENE 04:17:46 10° SSE
Cosmos 371 Rocket 4.3 04:14:46 33° NW 04:14:46 33° NW 04:18:54 10° N
Cosmos 1892 Rocket 4.0 04:17:11 45° SE 04:18:11 57° E 04:22:31 10° NNE
Cosmos 2279 Rocket 3.9 04:17:24 39° S 04:19:54 86° E 04:26:13 10° N
COSMOS 2487 3.2 04:26:19 45° NNW 04:26:19 45° NNW 04:28:59 10° NNE
Cosmos 1066 Rocket 4.1 04:26:14 52° SW 04:27:22 65° WNW 04:32:47 10° N
Cosmos 1025 Rocket 4.0 04:29:58 33° NW 04:29:58 33° NW 04:33:13 10° N
Cosmos 2026 Rocket 4.1 04:23:26 10° NNW 04:29:41 59° W 04:31:54 39° SSW
Cosmos 2208 Rocket 4.0 04:32:18 49° SW 04:33:31 65° WNW 04:38:46 10° NNE
Cosmos 1763 Rocket 3.8 04:33:33 30° S 04:36:03 63° ESE 04:41:19 10° NNE
ATLAS 3B R/B 3.5 04:34:18 20° S 04:39:07 48° ESE 04:45:45 10° NE
Timation 2 Rocket 4.2 04:37:47 25° S 04:41:21 61° ESE 04:47:14 10° NNE
Cosmos 1898 Rocket 3.4 04:38:26 10° NNW 04:43:38 73° WSW 04:48:50 10° S
UNKNOWN OBJECT B 2.8 04:41:41 10° N 04:45:29 55° WNW 04:45:45 53° W
Lacrosse 4 Rocket 3.6 04:45:17 10° NW 04:46:04 14° WNW 04:46:04 14° WNW
Okean O Rocket 4.3 04:47:42 10° NE 04:50:21 16° E 04:52:59 10° SE
CZ-2D R/B 3.4 04:47:26 10° NNW 04:51:37 24° WNW 04:52:41 22° W
Cosmos 1980 Rocket 2.4 04:46:52 10° NW 04:52:14 47° WSW 04:56:42 15° S
Cosmos 304 Rocket 4.4 04:52:17 34° W 04:53:24 39° WNW 04:57:56 10° N
Cosmos 1697 Rocket 3.8 04:50:44 10° NW 04:54:29 25° W 04:54:29 25° W
Cosmos 1655 Rocket 4.1 04:50:02 10° NNW 04:56:13 55° W 05:00:57 18° SSW
Cosmos 1937 Rocket 3.3 04:51:47 10° NNW 04:57:00 77° WSW 05:02:08 10° SSE
USA 215 3.3 04:50:55 10° NE 04:57:30 79° SE 05:01:38 25° SW
Cosmos 858 Rocket 4.4 04:55:27 10° NNW 05:00:35 62° WSW 05:05:41 10° S
Cosmos 2082 Rocket 3.6 04:58:43 20° W 05:00:41 24° NW 05:05:10 10° N
SL-16 R/B 2.5 04:57:02 10° NNW 05:02:43 70° ENE 05:08:22 10° SSE
ARIANE 5 R/B 3.7 04:58:26 10° N 05:02:48 27° WNW 05:04:19 24° W
Meteor 1-22 Rocket 4.5 04:58:05 10° NNW 05:03:51 51° W 05:08:28 15° SSW
SL-16 R/B 4.0 05:04:47 17° W 05:04:47 17° W 05:08:20 10° NW
Cosmos 2266 Rocket 3.9 04:58:27 10° N 05:04:33 89° E 05:10:42 10° S
Cosmos 1842 3.5 05:11:49 30° SW 05:13:23 48° W 05:17:14 10° N
Cosmos 990 Rocket 4.1 05:10:21 10° NNW 05:15:21 52° WSW 05:20:20 10° S
Cosmos 1726 Rocket 4.4 05:13:05 10° NNW 05:16:47 28° W 05:17:50 25° WSW
Cosmos 1707 4.2 05:13:15 10° SSE 05:16:50 38° E 05:20:27 10° NNE
Cosmos 2150 Rocket 4.0 05:11:38 10° NNW 05:17:05 71° WSW 05:22:30 10° S
DNEPR-1 R/B 4.3 05:13:51 14° S 05:17:12 46° ESE 05:21:31 10° NE
Cosmos 1814 Rocket 4.1 05:14:20 23° SW 05:17:26 58° WNW 05:22:33 10° NNE
Cosmos 292 Rocket 3.8 05:14:41 15° SSW 05:18:44 83° ESE 05:23:34 10° NNE
Cosmos 1953 2.6 05:14:47 10° N 05:18:51 70° E 05:22:54 10° SSE
Cosmos 2322 Rocket 2.2 05:13:57 10° NNW 05:19:38 90° NW 05:25:15 10° SSE
ADEOS II 2.4 05:17:41 10° N 05:22:46 50° WNW 05:26:39 17° SW
Cosmos 2298 Rocket 4.1 05:18:18 10° NNW 05:23:29 54° WSW 05:28:38 10° S
PSLV R/B 4.4 05:19:53 10° NNE 05:23:42 55° E 05:27:24 10° S
PSLV R/B 3.4 05:21:56 10° NNE 05:26:11 88° WNW 05:30:22 10° SSW
Cosmos 1805 4.0 05:26:28 10° NNW 05:29:55 31° W 05:32:16 17° SW
USA 267 4.2 05:25:43 10° ESE 05:31:59 51° NNE 05:38:17 10° NW
Cosmos 1378 3.1 05:28:27 10° S 05:32:11 85° E 05:35:57 10° N
Cosmos 1812 Rocket 3.7 05:27:53 10° N 05:32:23 82° E 05:36:50 10° S
Cosmos 2058 Rocket 4.0 05:29:14 10° NNW 05:33:01 28° W 05:35:54 15° SW
Lacrosse 5 rocket 3.5 05:33:22 10° WNW 05:36:09 17° NNW 05:38:51 10° NNE
USA 238 DEB 3.8 05:31:20 15° SW 05:37:09 69° NW 05:44:07 10° NNE
USA 238 3.8 05:31:25 15° SW 05:37:14 70° NW 05:44:14 10° NNE
Cosmos 1602 Rocket 3.5 05:33:08 10° SSW 05:37:25 62° W 05:41:44 10° N
BREEZE-M DEB (TANK) 1.7 05:39:02 20° SW 05:40:22 59° SSE 05:42:53 10° ENE
Cosmos 44 3.6 05:36:27 10° NW 05:41:35 55° WSW 05:46:49 10° SSE
CZ-4B R/B 4.1 05:37:13 10° NNE 05:42:40 51° E 05:47:57 10° S
Cosmos 1758 3.7 05:39:36 10° NNW 05:43:21 41° W 05:47:06 10° SSW
Cosmos 841 Rocket 4.0 05:45:23 12° SW 05:49:50 41° WNW 05:54:46 10° N
Cosmos 1626 Rocket 4.1 05:46:46 10° SSW 05:50:47 38° WNW 05:54:52 10° N
Meteor 1-28 Rocket 3.3 05:51:54 10° SSE 05:55:38 84° ENE 05:59:24 10° N
Cosmos 2322 4.4 05:52:56 10° NNW 05:58:37 61° ENE 06:04:16 10° SE
CZ-4B DEB 4.3 05:54:57 10° NNE 06:00:33 86° ESE 06:06:05 10° SSW
SJ 16-02 1.3 05:56:22 10° NNW 06:00:45 66° WSW 06:05:06 10° S
CZ-4B R/B 3.3 05:58:01 10° N 06:02:08 47° WNW 06:06:01 10° SW
Cosmos 44 Rocket 3.6 05:57:10 10° NW 06:02:09 52° WSW 06:07:11 10° SSE
Meteor 2-5 Rocket 4.0 05:59:25 10° S 06:04:55 73° E 06:10:30 10° NNE
Meteor PRIRODA 3.6 06:01:41 10° NNE 06:05:23 88° W 06:09:05 10° SSW
USA 161 1.8 06:09:00 10° S 06:11:58 50° W 06:14:55 10° NNW
Cosmos 540 Rocket 3.9 06:08:10 10° SW 06:13:04 44° WNW 06:17:59 10° N
NOSS 3-2 (C) 3.5 06:08:18 10° SW 06:14:12 84° NW 06:20:48 10° NE
